Wind_Speed
16 16 17 17 17 18 18 17 17 17 17 18 19 20 22 22 22 22 22 22 23 23 24 25 26 26 27 27 28 28 28 28 29 29 29 28 28 28
15 16 16 16 17 17 17 17 17 17 16 17 18 19 20 21 21 21 22 22 23 23 24 25 25 26 27 28 29 29 28 28 29 29 29 29 29 29
15 15 15 16 16 17 18 18 18 17 17 17 18 19 20 21 22 22 23 23 24 24 24 25 25 25 26 27 28 29 29 29 29 29 30 29 30 29
15 16 16 16 16 17 17 18 18 17 17 17 17 18 20 21 21 21 22 24 25 25 26 26 26 26 27 27 28 29 29 29 30 30 30 30 30 30
16 16 17 17 17 17 17 17 17 18 17 17 18 18 19 20 21 22 22 24 25 25 25 26 26 26 27 27 27 27 28 29 30 30 30 31 31 31
17 17 18 18 18 19 18 18 18 18 18 19 19 19 20 20 21 21 22 23 24 25 25 26 26 26 27 28 28 28 28 29 29 29 29 30 31 31
18 19 19 19 19 19 19 19 19 19 19 20 20 20 20 21 22 22 23 23 24 24 25 26 27 27 27 28 28 29 29 29 30 30 29 29 30 31
20 20 20 20 19 20 20 20 20 20 21 21 21 22 22 22 23 23 23 23 23 24 24 25 26 27 28 29 29 29 29 29 30 30 30 30 30 31
21 21 20 20 20 20 20 21 21 22 23 22 23 22 22 22 23 23 23 23 24 24 24 25 25 27 28 29 29 29 29 29 30 30 30 30 30 31
20 20 20 20 21 20 21 22 22 22 23 23 22 23 23 23 22 23 23 23 24 24 24 25 25 26 27 27 29 29 30 30 30 30 30 31 31 31
19 19 20 20 20 20 21 21 22 22 22 22 23 23 23 23 23 23 22 23 23 24 25 25 25 26 26 26 27 28 29 30 30 31 31 31 31 31
19 19 19 19 19 20 21 21 22 22 22 22 22 23 22 23 23 23 23 23 23 24 24 24 24 25 26 27 27 28 29 29 30 30 31 31 31 32
20 20 19 19 19 20 20 21 21 21 21 22 22 23 22 22 23 23 22 23 23 23 23 23 23 24 24 25 26 27 28 29 29 30 30 31 32 32
19 19 19 19 19 20 20 20 21 21 21 21 22 22 21 21 21 21 21 21 21 22 22 22 22 22 23 24 24 25 26 27 28 28 29 30 30 31
18 18 19 19 19 19 20 20 21 21 21 21 21 21 21 20 21 21 21 21 22 22 23 23 23 23 24 24 24 25 26 26 27 28 28 29 30 30
19 19 20 20 20 20 20 20 21 21 21 22 22 22 21 21 21 21 21 22 22 23 23 24 25 25 25 25 25 26 26 26 27 28 29 29 29 30
19 19 20 20 20 19 19 20 20 21 21 22 22 22 22 22 22 22 22 22 22 23 24 24 25 25 25 25 26 27 27 28 28 29 29 29 29 29
20 20 20 20 20 20 20 20 20 21 21 22 22 22 22 22 23 23 23 23 24 24 25 26 26 26 26 27 27 27 28 29 29 30 30 29 30 31
21 20 20 21 21 21 21 21 21 22 22 22 22 22 23 23 23 24 24 25 25 26 27 27 27 27 27 28 28 29 29 29 29 29 29 30 30 31
21 21 21 21 22 22 22 23 23 23 23 23 23 23 23 23 24 25 25 26 26 27 27 27 28 28 28 29 29 29 29 29 30 29 29 30 30 30
20 21 22 22 23 24 24 24 24 24 24 24 24 24 24 24 24 25 26 26 26 26 26 26 27 28 28 28 28 28 28 29 30 30 30 30 30 31
19 20 21 22 23 24 25 25 25 25 25 24 24 24 24 24 25 25 25 25 25 25 25 26 26 27 27 27 27 28 28 28 28 29 30 30 30 30
19 20 21 23 24 24 24 24 24 24 24 23 23 24 24 25 25 25 25 25 24 24 24 25 25 25 26 26 26 26 26 26 26 27 28 29 30 30
Wind_Direction
271 270 269 264 264 264 265 266 267 267 266 266 267 266 263 263 263 262 263 263 262 262 261 259 257 256 255 255 256 257 257 256 255 253 252 251 251 251
273 270 269 268 267 266 266 267 268 268 268 268 270 270 268 266 266 265 263 263 263 262 261 259 258 257 256 256 257 257 257 256 255 253 252 251 252 252
273 272 271 272 271 269 268 268 269 271 273 270 270 270 269 267 267 267 265 263 263 262 261 259 259 258 256 257 258 258 257 255 254 253 252 252 252 251
274 272 272 273 274 273 270 270 270 270 274 274 273 272 270 269 269 268 268 267 264 263 263 261 260 260 258 258 258 258 256 255 254 255 253 253 252 251
278 274 272 271 271 272 271 272 273 275 276 276 276 276 273 272 271 269 269 270 267 265 264 263 262 264 262 260 258 258 257 255 255 254 254 254 254 253
279 277 275 273 271 270 269 270 273 275 278 280 279 278 277 276 274 272 272 272 270 268 266 265 264 264 262 260 259 258 256 254 254 254 254 255 255 254
278 278 277 276 274 271 269 269 272 276 279 280 279 279 279 277 275 273 274 274 273 270 268 267 266 265 264 261 259 258 257 256 255 254 256 257 255 254
277 277 277 276 274 271 269 270 272 275 279 280 278 280 280 279 277 276 275 274 273 271 269 267 265 265 264 263 261 259 258 257 256 255 255 256 256 255
277 277 276 275 274 272 270 270 272 275 278 278 278 279 279 279 279 277 276 275 272 272 270 267 266 266 264 262 260 259 258 258 256 256 256 256 258 258
278 276 275 274 272 271 270 270 272 275 276 277 278 279 280 281 279 278 278 277 276 274 271 270 268 266 264 262 261 258 257 257 257 258 258 258 260 261
278 276 275 273 272 271 271 273 274 275 276 277 278 280 281 280 279 278 279 280 279 277 274 272 269 266 264 262 261 259 258 258 258 259 260 261 261 260
278 277 275 273 272 271 272 273 274 276 277 279 281 282 281 279 278 277 278 279 279 279 277 274 271 268 264 262 260 259 258 258 259 260 261 261 262 262
278 276 275 275 272 272 272 273 276 277 279 280 282 283 282 278 277 277 277 277 277 278 277 276 273 270 267 265 264 264 262 262 262 262 263 263 263 263
278 278 278 277 274 275 274 275 277 277 279 281 282 283 282 279 277 278 277 278 278 279 277 276 275 272 268 266 265 264 264 264 264 265 265 266 265 265
279 278 279 279 276 276 275 276 278 279 280 281 283 284 283 280 278 279 279 279 280 279 278 277 277 274 272 270 266 264 265 265 266 266 266 267 266 266
281 280 280 281 278 279 278 277 278 281 281 282 282 283 282 279 278 280 280 280 281 281 280 279 278 276 274 271 268 267 267 267 267 266 266 267 267 266
279 280 281 281 280 279 281 281 282 282 284 284 283 283 283 280 279 280 280 280 281 283 282 281 279 277 275 273 271 270 270 269 269 268 267 266 266 266
277 278 278 279 280 281 283 285 287 287 286 287 286 284 284 282 279 279 279 280 281 283 283 281 279 278 276 274 274 273 273 273 271 270 268 267 266 267
276 277 278 278 279 281 284 286 289 289 290 290 290 288 286 284 282 281 281 282 283 284 283 281 280 279 277 275 274 275 275 274 273 271 269 268 268 268
275 276 277 279 280 281 282 284 286 289 290 290 291 290 288 286 284 283 283 285 285 283 282 282 281 280 279 277 275 275 275 274 273 272 271 270 270 270
276 275 277 280 282 282 282 283 284 286 287 289 289 288 288 288 287 286 286 286 286 284 283 282 282 282 280 279 278 277 277 276 274 272 272 271 271 271
281 281 281 282 283 284 284 283 283 283 285 287 288 288 288 289 290 290 289 288 287 285 284 284 284 284 282 281 281 280 278 277 275 275 274 273 273 273
285 285 286 287 287 286 285 283 282 283 283 284 286 287 288 290 291 291 290 289 287 287 286 286 286 286 284 282 282 281 279 278 278 277 277 276 276 276
Height
5793 5793 5792 5791 5791 5791 5791 5791 5791 5791 5791 5790 5790 5790 5790 5790 5790 5790 5790 5791 5791 5791 5792 5793 5794 5795 5796 5797 5798 5799 5799 5800 5801 5802 5804 5805 5806 5808
5788 5787 5787 5786 5786 5785 5785 5785 5785 5785 5785 5785 5784 5784 5784 5784 5784 5784 5784 5784 5784 5785 5785 5786 5786 5787 5788 5789 5790 5791 5792 5792 5793 5795 5796 5797 5799 5800
5783 5782 5782 5781 5781 5780 5780 5780 5779 5779 5779 5779 5778 5778 5778 5777 5777 5777 5777 5777 5777 5777 5778 5778 5779 5780 5780 5781 5782 5783 5784 5785 5786 5787 5788 5789 5790 5792
5778 5778 5777 5776 5776 5775 5775 5774 5774 5774 5774 5773 5773 5772 5771 5771 5771 5770 5770 5770 5770 5770 5770 5770 5771 5772 5772 5773 5774 5775 5776 5777 5778 5779 5780 5781 5782 5783
5773 5772 5772 5771 5771 5770 5769 5769 5768 5768 5768 5768 5767 5766 5765 5764 5764 5764 5763 5763 5763 5762 5762 5762 5763 5763 5764 5765 5766 5767 5768 5769 5770 5771 5771 5772 5774 5775
5768 5767 5766 5765 5765 5764 5764 5764 5763 5763 5762 5762 5761 5760 5759 5758 5757 5757 5757 5756 5755 5755 5754 5754 5755 5755 5756 5757 5758 5758 5759 5760 5761 5762 5763 5764 5765 5766
5762 5761 5760 5759 5759 5758 5758 5758 5757 5757 5756 5756 5755 5754 5753 5751 5750 5750 5749 5749 5748 5747 5747 5747 5747 5747 5748 5748 5749 5750 5751 5752 5753 5754 5755 5756 5756 5757
5756 5755 5754 5753 5752 5752 5752 5751 5751 5751 5750 5749 5748 5747 5746 5744 5743 5742 5742 5741 5741 5740 5739 5739 5739 5739 5740 5740 5741 5742 5743 5744 5744 5745 5746 5747 5748 5748
5749 5748 5747 5747 5746 5745 5745 5745 5744 5744 5743 5742 5741 5740 5739 5737 5736 5735 5734 5733 5733 5732 5732 5731 5731 5731 5731 5732 5732 5733 5734 5735 5736 5737 5737 5738 5739 5739
5742 5742 5741 5740 5739 5739 5738 5738 5738 5737 5736 5735 5734 5733 5731 5730 5729 5728 5727 5726 5725 5725 5724 5724 5723 5723 5722 5723 5723 5724 5725 5726 5727 5728 5728 5729 5730 5730
5736 5735 5734 5734 5733 5732 5732 5732 5731 5730 5729 5728 5727 5726 5724 5723 5722 5721 5720 5719 5718 5717 5716 5716 5715 5715 5714 5714 5715 5715 5716 5717 5718 5719 5719 5720 5720 5720
5730 5729 5728 5727 5727 5726 5725 5725 5725 5724 5723 5722 5720 5719 5718 5716 5715 5714 5713 5712 5711 5710 5709 5708 5707 5707 5707 5707 5707 5707 5708 5708 5709 5709 5710 5710 5710 5710
5724 5723 5722 5721 5720 5720 5719 5719 5718 5717 5716 5715 5713 5712 5710 5709 5708 5707 5706 5705 5704 5703 5702 5701 5700 5699 5699 5699 5699 5699 5699 5700 5700 5700 5700 5700 5700 5700
5718 5717 5716 5715 5715 5714 5713 5712 5711 5710 5709 5708 5707 5705 5704 5702 5701 5701 5700 5699 5697 5696 5695 5694 5693 5692 5692 5692 5692 5691 5691 5691 5691 5691 5691 5690 5690 5690
5712 5711 5711 5710 5709 5708 5707 5706 5705 5704 5703 5702 5700 5699 5697 5696 5695 5694 5693 5692 5691 5689 5688 5687 5686 5685 5685 5684 5684 5684 5683 5683 5683 5682 5682 5682 5681 5681
5706 5706 5705 5704 5703 5702 5701 5700 5699 5697 5696 5695 5694 5692 5690 5689 5689 5688 5687 5685 5684 5683 5681 5680 5679 5678 5677 5676 5676 5676 5675 5675 5674 5674 5673 5673 5672 5671
5700 5699 5699 5698 5697 5696 5695 5693 5692 5691 5690 5688 5687 5685 5684 5683 5682 5681 5680 5679 5678 5676 5675 5673 5671 5670 5669 5669 5668 5667 5667 5666 5665 5665 5664 5663 5663 5662
5694 5693 5692 5692 5691 5690 5689 5688 5686 5684 5683 5682 5680 5678 5677 5676 5675 5674 5673 5671 5670 5669 5667 5665 5664 5662 5661 5660 5659 5658 5657 5656 5656 5655 5654 5654 5654 5653
5687 5687 5686 5686 5685 5684 5683 5682 5680 5678 5677 5675 5673 5672 5670 5669 5668 5666 5665 5663 5662 5660 5659 5657 5655 5653 5653 5652 5650 5649 5648 5647 5646 5645 5644 5644 5643 5643
5680 5680 5680 5679 5678 5677 5676 5675 5673 5672 5670 5668 5666 5665 5663 5662 5660 5659 5657 5655 5654 5652 5650 5648 5646 5645 5643 5642 5641 5639 5638 5637 5636 5635 5634 5633 5633 5632
5674 5673 5673 5672 5671 5670 5669 5667 5666 5664 5663 5661 5660 5658 5656 5654 5653 5651 5649 5647 5645 5643 5642 5640 5638 5636 5634 5632 5631 5630 5628 5627 5626 5625 5624 5623 5623 5622
5667 5666 5666 5665 5663 5662 5661 5659 5658 5657 5655 5654 5652 5651 5649 5647 5645 5643 5641 5639 5637 5635 5633 5631 5629 5627 5625 5623 5622 5621 5619 5618 5616 5614 5613 5613 5612 5611
5660 5659 5658 5657 5655 5654 5652 5651 5650 5648 5647 5646 5645 5643 5641 5639 5637 5635 5633 5631 5628 5627 5625 5623 5621 5619 5617 5615 5613 5612 5611 5609 5608 5606 5605 5603 5602 5600